www.pogodaiklimat.ru

Погода и климат >> Архив погоды >> Австралия >> Coober Pedy Airport


ПОГОДА в Coober Pedy Airport

  • Прогноз погоды в Coober Pedy Airport
  • Монитор погоды в Coober Pedy Airport
  • Климат города

АРХИВ ПОГОДЫ в Coober Pedy Airport

Время (UTC), дата Ветер
(напр.,м/с)
 
Видим.   Явления Облачность Т
(С)
Тd
(С)
f
(%)
Тe
(С)
Тes
(С)
Комфортность P
(гПа)
Po
(гПа)
Тmin
(С)
Tmax
(С)
R
(мм)
R24
(мм)
S
(см)
22 9.08 ЮЗ 7 н/о н/о +15.0 +3.2 45 +13 +13 1012.7 986.0
23 9.08 ЮЗ 8 н/о н/о +17.4 +5.4 45 +16 +16 1013.6 986.9
00 10.08 ЮЗ 12 н/о н/о +18.6 +2.4 34 +18 +18 1014.3 987.6
01 10.08 ЮЗ 12 н/о н/о +19.4 -1.7 24 +18 +18 1014.9 988.2
02 10.08 ЮЗ 13 н/о н/о +19.3 -2.9 22 +18 +18 1015.2 988.5
03 10.08 ЮЗ 11 н/о н/о +19.1 -3.7 21 +18 +18 1014.9 988.2
04 10.08 ЮЗ 10 н/о н/о +20.0 -2.3 22 +19 +19 1014.2 987.5
05 10.08 З 10 н/о н/о +19.9 -1.8 23 +19 +19 1014.3 987.6
06 10.08 З 9 н/о н/о +18.9 -2.1 24 +18 +18 1014.4 987.7
07 10.08 З 8 н/о н/о +18.5 -2.4 24 +18 +18 1014.9 988.2
08 10.08 З 7 н/о н/о +18.9 -3.3 22 +18 +18 1015.6 988.8
09 10.08 ЮЗ 6 н/о н/о +17.9 -3.5 23 +17 +17 1016.5 989.7
10 10.08 ЮЗ 5 н/о н/о +16.9 -3.8 24 +16 +16 1017.7 990.9
11 10.08 ЮЗ 5 н/о н/о +15.0 -3.8 27 +14 +14 1018.8 992.0
12 10.08 ЮЗ 5 н/о н/о +13.2 -3.5 31 +12 +12 1019.8 992.9
13 10.08 ЮЗ 5 н/о н/о +11.7 -4.4 32 +10 +10 1020.0 993.1
14 10.08 ЮЗ 4 н/о н/о +10.0 -4.7 35 +8 +8 1020.5 993.6
15 10.08 Ю 4 н/о н/о +9.3 -5.4 35 +7 +7 1020.7 993.8
16 10.08 Ю 6 н/о н/о +8.7 -4.5 39 +6 +6 1021.0 994.1
17 10.08 Ю 5 н/о н/о +6.6 -4.5 45 +3 +3 1020.8 993.9
18 10.08 Ю 5 н/о н/о +6.5 -2.9 51 +3 +3 1020.6 993.7
19 10.08 Ю 5 н/о н/о +6.6 -0.6 60 +3 +3 1020.8 993.9
20 10.08 Ю 4 н/о н/о +5.8 -0.3 65 +2 +2 1021.4 994.5
21 10.08 Ю 3 н/о н/о +3.4 -2.1 67 -0 -0 1022.3 995.4
22 10.08 ЮЗ 3 н/о н/о +3.3 -1.1 73 -1 -1 1023.7 996.7
23 10.08 Ю 5 н/о н/о +8.5 +3.9 73 +5 +5 1024.4 997.4
00 11.08 Ю 5 н/о н/о +11.9 +5.5 65 +10 +10 1025.0 998.0
01 11.08 ЮВ 5 н/о н/о +14.3 +4.0 50 +13 +13 1024.9 997.9
02 11.08 ЮВ 4 н/о н/о +15.2 +1.4 39 +15 +15 1024.4 997.4
03 11.08 ЮВ 3 н/о н/о +16.5 -0.2 32 +17 +17 1023.3 996.3
04 11.08 ЮВ 3 н/о н/о +17.0 -0.2 31 +17 +17 1022.3 995.4
05 11.08 СВ 2 н/о н/о +18.3 -0.5 28 +19 +19 1021.5 994.6
06 11.08 ЮВ 3 н/о н/о +18.7 -1.2 26 +19 +19 1021.4 994.5
07 11.08 В 1 н/о н/о +18.8 -1.6 25 +20 +20 1021.4 994.5
08 11.08 СВ 2 н/о н/о +18.0 -1.8 26 +19 +19 1021.7 994.8
09 11.08 В 2 н/о н/о +15.7 -1.8 30 +16 +16 1021.7 994.8
10 11.08 В 3 н/о н/о +14.0 -2.4 32 +13 +13 1022.0 995.1
11 11.08 В 4 н/о н/о +12.2 -1.7 38 +11 +11 1022.6 995.7
12 11.08 В 3 н/о н/о +11.2 -1.9 40 +10 +10 1023.0 996.0
13 11.08 СВ 4 н/о н/о +10.0 -2.0 43 +8 +8 1023.1 996.1
14 11.08 В 4 н/о н/о +8.6 -2.6 45 +6 +6 1022.3 995.4
15 11.08 СВ 3 н/о н/о +8.7 -2.6 45 +7 +7 1022.1 995.2
16 11.08 СВ 4 н/о н/о +7.8 -2.5 48 +5 +5 1021.7 994.8
17 11.08 СВ 5 н/о н/о +7.7 -2.3 49 +5 +5 1021.7 994.8
18 11.08 СВ 5 н/о н/о +7.6 -1.9 51 +4 +4 1021.3 994.4
19 11.08 СВ 6 н/о н/о +7.4 -1.0 55 +4 +4 1021.0 994.1
20 11.08 СВ 6 н/о н/о +7.8 +0.3 59 +4 +4 1020.9 994.0
21 11.08 СВ 5 н/о н/о +7.3 +0.1 60 +4 +4 1021.3 994.4
22 11.08 С 6 н/о н/о +7.6 +0.6 61 +4 +4 1021.8 994.9
23 11.08 С 6 н/о н/о +11.0 +1.0 50 +8 +8 1022.6 995.7
00 12.08 СВ 7 н/о н/о +13.8 +0.5 40 +12 +12 1023.1 996.1
01 12.08 СВ 9 н/о н/о +17.0 -0.2 31 +16 +16 1022.5 995.6
02 12.08 СВ 9 н/о н/о +18.5 -0.3 28 +18 +18 1022.2 995.3
03 12.08 С 8 н/о н/о +20.8 +0.1 25 +20 +20 1021.3 994.4
04 12.08 С 7 н/о н/о +21.7 -0.9 22 +21 +21 комфорт 1020.5 993.6
05 12.08 С 7 н/о н/о +23.3 -0.9 20 +22 +22 комфорт 1018.9 992.1
06 12.08 С 7 н/о н/о +23.5 -0.7 20 +22 +22 комфорт 1018.1 991.3
07 12.08 С 7 н/о н/о +23.7 -0.6 20 +22 +22 комфорт 1018.0 991.2
08 12.08 С 5 н/о н/о +22.8 -0.6 21 +22 +22 комфорт 1018.0 991.2
09 12.08 СВ 4 н/о н/о +19.7 -0.9 25 +20 +20 1018.2 991.4
10 12.08 СВ 5 н/о н/о +19.1 -0.8 26 +19 +19 1018.5 991.7
11 12.08 СВ 6 н/о н/о +18.1 -1.2 27 +18 +18 1018.6 991.8
12 12.08 СВ 7 н/о н/о +17.5 -1.2 28 +17 +17 1018.4 991.6
13 12.08 СВ 7 н/о н/о +16.9 -1.2 29 +16 +16 1018.3 991.5
14 12.08 СВ 6 н/о н/о +16.2 -0.9 31 +15 +15 1018.6 991.8
15 12.08 СВ 6 н/о н/о +15.4 -1.2 32 +14 +14 1018.2 991.4
16 12.08 СВ 7 н/о н/о +15.9 -0.8 32 +15 +15 1018.0 991.2
17 12.08 С 7 н/о н/о +16.5 -0.7 31 +15 +15 1017.8 991.0
18 12.08 С 6 н/о н/о +16.1 -0.6 32 +15 +15 1017.9 991.1
19 12.08 СВ 6 н/о н/о +15.1 -1.0 33 +14 +14 1017.8 991.0
20 12.08 СВ 5 н/о н/о +14.8 -0.9 34 +14 +14 1018.0 991.2
21 12.08 С 5 н/о н/о +14.9 -0.8 34 +14 +14 1018.2 991.4
22 12.08 С 5 н/о н/о +14.7 -0.6 35 +13 +13 1018.4 991.6
23 12.08 С 5 н/о н/о +15.6 -0.6 33 +15 +15 1019.2 992.3
00 13.08 С 4 н/о н/о +19.4 -0.1 27 +19 +19 1019.6 992.7
01 13.08 С 5 н/о н/о +24.0 -0.3 20 +23 +23 комфорт 1019.3 992.4
02 13.08 СЗ 7 н/о н/о +28.6 -1.5 14 +26 +26 жарко 1018.6 991.8
03 13.08 З 7 н/о н/о +29.9 -1.5 13 +27 +27 жарко 1017.6 990.8
04 13.08 З 7 н/о н/о +30.4 -1.1 13 +27 +27 жарко 1016.7 989.9
05 13.08 З 5 н/о н/о +30.3 -1.2 13 +27 +27 жарко 1016.2 989.4
06 13.08 З 6 н/о н/о +30.6 -0.9 13 +27 +27 жарко 1015.9 989.1
07 13.08 З 6 н/о н/о +30.1 -1.3 13 +27 +27 жарко 1015.6 988.8
08 13.08 ЮЗ 3 н/о н/о +28.1 -0.9 15 +26 +26 жарко 1016.4 989.6
09 13.08 Ю 3 н/о н/о +25.3 0.0 19 +24 +24 комфорт 1016.7 989.9
10 13.08 Ю 5 н/о н/о +23.7 +0.1 21 +23 +23 комфорт 1017.4 990.6
11 13.08 ЮВ 4 н/о н/о +22.5 -0.3 22 +22 +22 комфорт 1017.6 990.8
12 13.08 В 5 н/о н/о +22.7 -0.7 21 +22 +22 комфорт 1018.0 991.2
13 13.08 В 5 н/о н/о +21.8 -0.8 22 +21 +21 комфорт 1017.9 991.1
14 13.08 В 5 н/о н/о +21.6 -1.6 21 +21 +21 комфорт 1017.5 990.7
15 13.08 СВ 6 н/о н/о +19.9 -1.2 24 +20 +20 1017.2 990.4
16 13.08 СВ 6 н/о н/о +20.2 -1.6 23 +20 +20 1016.9 990.1
17 13.08 СВ 6 н/о н/о +19.0 -1.4 25 +19 +19 1016.4 989.6
18 13.08 С 6 н/о н/о +18.2 -1.6 26 +18 +18 1016.2 989.4
19 13.08 СВ 5 н/о н/о +17.7 -1.5 27 +17 +17 1015.9 989.1
20 13.08 С 6 н/о н/о +17.1 -1.5 28 +16 +16 1016.0 989.2
21 13.08 С 5 н/о н/о +16.5 -1.6 29 +16 +16 1016.2 989.4
22 13.08 С 5 н/о н/о +16.6 -1.5 29 +16 +16 1016.4 989.6
23 13.08 С 4 н/о н/о +19.7 -0.9 25 +20 +20 1016.8 990.0
00 14.08 С 4 н/о н/о +23.7 +0.1 21 +23 +23 комфорт 1017.0 990.2
01 14.08 СЗ 8 н/о н/о +29.4 +0.1 15 +27 +27 жарко 1016.6 989.8
02 14.08 СЗ 9 н/о н/о +31.0 +0.4 14 +28 +28 жарко 1015.8 989.0
03 14.08 СЗ 7 н/о н/о +32.7 +0.7 13 +30 +30 жарко 1014.7 988.0
04 14.08 З 8 н/о н/о +33.8 +0.5 12 +30 +30 жарко 1013.9 987.2
05 14.08 СЗ 9 н/о н/о +33.7 +0.4 12 +30 +30 жарко 1013.0 986.3
06 14.08 З 8 н/о н/о +33.3 +0.1 12 +30 +30 жарко 1012.2 985.5
07 14.08 СЗ 6 н/о н/о +33.6 +0.3 12 +30 +30 жарко 1011.8 985.1
08 14.08 СЗ 7 н/о н/о +32.2 -0.8 12 +29 +29 жарко 1011.9 985.2
09 14.08 СЗ 4 н/о н/о +27.4 -0.6 16 +25 +25 комфорт 1012.2 985.5
10 14.08 СЗ 5 н/о н/о +24.4 0.0 20 +23 +23 комфорт 1012.4 985.7
11 14.08 СЗ 4 н/о н/о +23.6 -0.6 20 +22 +22 комфорт 1012.5 985.8
12 14.08 С 5 н/о н/о +23.0 -0.5 21 +22 +22 комфорт 1012.6 985.9
13 14.08 С 5 н/о н/о +21.7 -0.3 23 +21 +21 комфорт 1012.2 985.5
14 14.08 С 5 н/о н/о +22.4 -1.0 21 +21 +21 комфорт 1011.6 984.9
15 14.08 С 6 н/о н/о +22.5 -0.9 21 +22 +22 комфорт 1010.9 984.3
16 14.08 СЗ 7 н/о н/о +22.7 -1.4 20 +22 +22 комфорт 1010.5 983.9
17 14.08 СЗ 6 н/о н/о +22.5 -1.6 20 +21 +21 комфорт 1010.0 983.4
18 14.08 СЗ 8 н/о н/о +22.6 -2.2 19 +21 +21 комфорт 1009.6 983.0
19 14.08 СЗ 7 н/о н/о +21.7 -2.2 20 +21 +21 комфорт 1009.4 982.8
20 14.08 СЗ 6 н/о н/о +20.7 -1.8 22 +20 +20 1009.4 982.8
21 14.08 З 8 н/о н/о +20.3 -1.5 23 +20 +20 1009.9 983.3
22 14.08 З 4 н/о н/о +16.7 -1.4 29 +16 +16 1010.5 983.9
23 14.08 З 5 н/о н/о +20.7 -0.6 24 +21 +21 комфорт 1010.5 983.9
00 15.08 З 8 н/о н/о +22.9 +0.1 22 +22 +22 комфорт 1010.6 984.0
01 15.08 З 7 н/о н/о +23.8 +0.8 22 +23 +23 комфорт 1010.5 983.9
02 15.08 З 6 н/о н/о +25.4 +1.5 21 +24 +24 комфорт 1009.5 982.9
03 15.08 З 6 н/о н/о +26.2 +2.2 21 +25 +25 комфорт 1008.6 982.0
04 15.08 З 6 н/о н/о +27.7 +4.1 22 +26 +26 жарко 1007.8 981.2
05 15.08 З 8 н/о н/о +28.8 +5.0 22 +27 +27 жарко 1007.0 980.5
06 15.08 З 9 н/о н/о +29.1 +7.1 25 +28 +28 жарко 1006.6 980.1
07 15.08 З 9 н/о н/о +29.1 +7.1 25 +28 +28 жарко 1006.6 980.1
08 15.08 З 9 н/о н/о +27.9 +6.6 26 +27 +27 жарко 1006.9 980.4
09 15.08 З 6 н/о н/о +25.8 +6.9 30 +26 +26 жарко 1007.5 981.0
10 15.08 ЮЗ 5 н/о н/о +24.0 +7.2 34 +24 +24 комфорт 1008.3 981.7
11 15.08 ЮЗ 12 н/о н/о +18.5 +12.0 66 +18 +18 1011.0 984.4
12 15.08 ЮЗ 11 н/о н/о +17.7 +12.6 72 +16 +16 1012.2 985.5
13 15.08 ЮЗ 12 н/о н/о +16.5 +10.6 68 +15 +15 1012.5 985.8
14 15.08 ЮЗ 10 н/о н/о +15.9 +10.0 68 +14 +14 1012.5 985.8
15 15.08 ЮЗ 10 н/о н/о +16.2 +7.4 56 +14 +14 1012.4 985.7
16 15.08 ЮЗ 9 н/о н/о +16.2 +7.4 56 +15 +15 1012.4 985.7
17 15.08 ЮЗ 8 н/о н/о +15.5 +6.5 55 +14 +14 1012.5 985.8
18 15.08 ЮЗ 8 н/о н/о +14.8 +5.9 55 +13 +13 1012.2 985.5
19 15.08 ЮЗ 8 н/о н/о +14.0 +6.4 60 +12 +12 1012.8 986.1
20 15.08 ЮЗ 5 н/о н/о +12.5 +7.0 69 +10 +10 1013.4 986.7
21 15.08 З 4 н/о н/о +10.9 +6.6 75 +9 +9 1014.3 987.6
22 15.08 З 4 н/о н/о +10.6 +6.4 75 +8 +8 1015.0 988.3
23 15.08 З 5 н/о н/о +13.3 +6.6 64 +11 +11 1016.0 989.2
00 16.08 ЮЗ 5 н/о н/о +15.1 +5.9 54 +14 +14 1016.4 989.6
01 16.08 ЮЗ 5 н/о н/о +16.9 +2.5 38 +16 +16 1016.4 989.6
02 16.08 ЮЗ 7 н/о н/о +18.3 -1.0 27 +18 +18 1015.7 988.9
03 16.08 ЮЗ 5 н/о н/о +18.4 -1.4 26 +18 +18 1014.7 988.0
04 16.08 ЮЗ 5 н/о н/о +20.1 -1.7 23 +20 +20 1013.7 987.0
05 16.08 З 6 н/о н/о +20.8 -2.3 21 +20 +20 1013.0 986.3
06 16.08 СЗ 6 н/о н/о +21.6 -3.7 18 +21 +21 комфорт 1012.6 985.9
07 16.08 З 6 н/о н/о +21.2 -4.0 18 +20 +20 1012.6 985.9
08 16.08 З 6 н/о н/о +20.5 -3.9 19 +20 +20 1012.7 986.0
09 16.08 З 4 н/о н/о +18.1 -3.9 22 +18 +18 1013.1 986.4
10 16.08 З 3 н/о н/о +15.0 -4.3 26 +15 +15 1013.9 987.2
11 16.08 З 2 н/о н/о +14.5 -4.2 27 +14 +14 1014.5 987.8
12 16.08 З 3 н/о н/о +14.0 -4.7 27 +14 +14 1015.0 988.3
13 16.08 ЮЗ 3 н/о н/о +13.0 -4.6 29 +12 +12 1015.0 988.3
14 16.08 З 3 н/о н/о +12.5 -4.6 30 +12 +12 1014.9 988.2
15 16.08 З 4 н/о н/о +10.0 -5.1 34 +8 +8 1014.8 988.1
16 16.08 З 4 н/о н/о +8.9 -5.0 37 +7 +7 1014.6 987.9
17 16.08 З 4 н/о н/о +8.5 -5.0 38 +6 +6 1014.3 987.6
18 16.08 З 4 н/о н/о +7.2 -4.8 42 +4 +4 1014.4 987.7
19 16.08 СЗ 4 н/о н/о +6.9 -4.5 44 +4 +4 1014.9 988.2
20 16.08 З 5 н/о н/о +6.8 -4.0 46 +4 +4 1015.5 988.7
21 16.08 З 5 н/о н/о +6.6 -3.9 47 +3 +3 1016.2 989.4
22 16.08 З 5 н/о н/о +8.1 -2.5 47 +5 +5 1017.0 990.2

 

Местоположение метеостанции Coober Pedy Airport (Южная Австралия, Австралия): широта -29.03 долгота 134.71 высота над уровнем моря 226 м.

В архиве по умолчанию представлена погода в Coober Pedy Airport за последнюю неделю. Архивные данные за месяц целиком и за предыдущие месяцы, начиная с января 2011 года, Вы можете получить, выбрав интересующий диапазон дат из раскрывающегося списка и нажав кнопку "Ввод!".

Внимание! Время в таблицах - всемирное. Для получения местного времени необходимо прибавить поправку, которая в Coober Pedy Airport равна 9.5 ч.

Смотрите также архив погоды в соседних городах и на ближайших метеорологических станциях:

Погода в Oodnadatta Airport (Южная Австралия, Австралия) (180 км)
Погода в Tarcoola Aero (Южная Австралия, Австралия) (188 км)
Погода в Olympic Dam Aerodrome (Южная Австралия, Австралия) (264 км)
Погода в Woomera Aerodrome (Южная Австралия, Австралия) (311 км)
Погода в Marree Aero (Южная Австралия, Австралия) (332 км)
Погода в Ceduna Amo (Южная Австралия, Австралия) (358 км)
Погода в Pukatja (Южная Австралия, Австралия) (395 км)
Погода в Leigh Creek Airport (Южная Австралия, Австралия) (398 км)
Погода в Minnipa Pirsa (Южная Австралия, Австралия) (427 км)
Погода в Wudinna Aero (Южная Австралия, Австралия) (453 км)

Пояснения к столбцам:

Ветер - указаны скорость ветра в м/с - средняя за 10 мин, порывы в срок и между сроками (в фигурных скобках) и направление, откуда дует ветер: С - северный, СВ - северо-восточный, В - восточный, ЮВ - юго-восточный, Ю - южный, ЮЗ - юго-западный, З - западный, СЗ - северо-западный.
Видимость - горизонтальная дальность видимости в метрах или километрах. При видимости от 1 до 10 км при отсутствии осадков обычно наблюдается дымка, при ухудшении видимости до 1 км и менее - туман. В сухую погоду видимость может ухудшаться дымом, пылью или мглою.
Явления - указаны атмосферные явления, наблюдавшиеся в срок или в последний час перед сроком; фигурными скобками обозначены явления, наблюдавшиеся между сроками (за 1-3 часа до срока); квадратными скобками обозначены град или гололедные отложения с указанием их диаметра в мм.
Облачность - указаны через наклонную черту общая и нижняя облачность в баллах и высота нижней границы облаков в метрах; квадратными скобками обозначены формы облаков: Ci - перистые, Cs - перисто-слоистые, Cc - перисто-кучевые, Ac - высококучевые, As - высокослоистые, Sc - слоисто-кучевые, Ns - слоисто-дождевые, Cu - кучевые, Cb - кучево-дождевые. Подробнее классификацию облаков см. в Атласе облаков (PDF).
T - Температура воздуха - температура, измеренная на высоте 2 м над землей.
Td - Температура точки росы - температура, при понижении до которой содержащийся в воздухе водяной пар достигнет насыщения.
f - Относительная влажность воздуха - влажноcть воздуха, измеренная на высоте 2 м над землей.
Te - Эффективная температура - температура, которую ощущает одетый по сезону человек в тени. Характеристика душности погоды. При расчете учитывается влияние влажности воздуха и скорости ветра на теплоощущения человека.
Tes - Эффективная температура на солнце - температура, которую ощущает человек, с поправкой на солнечный нагрев. Характеристика знойности погоды. Зависит от высоты солнца над горизонтом, облачности и скорости ветра. Ночью, в пасмурную погоду, а также при ветре 12 м/с и более поправка равна нулю.
P - Атмосферное давление - приведенное к уровню моря атмосферное давление.
Po - Атмосферное давление - измеренное на уровне метеостанции атмосферное давление.
Tmin - Минимальная температура - минимум температуры воздуха на высоте 2 м над землей.
Tmax - Максимальная температура - максимум температуры воздуха на высоте 2 м над землей.
R - Количество осадков - Количество выпавших осадков за период времени, мм. При наведении курсора мыши на число - период времени, за который выпало указанное количество осадков.
R24 - Количество осадков - Количество выпавших осадков за 24 часа, мм.
S - Снежный покров - Высота снежного покрова, см. При наведении курсора мыши на число - состояние снежного покрова и степень покрытия местности в баллах.